Preview of NWS' New Version of Forecast
This preview is not operational and should not be used for support decisions.
Latest weather observations around

Boyd Deep Canyon Reserve (UCNRS) (UCDE)

Using English Units (Switch to International System of Units)
Date/ Time (PDT) Wind (mph) Vis. (mi) Weather Sky Cond. Temp (°F) Rel. Humidity Wind Chill (°F) Heat Index (°F) Pressure Precip. (in)
Air Dwpt 6 hour Altimeter (inHg) Sea level (inHg) 1 hr 3 hr 6 hr
Max Min
Mar 26 13:20 NE 4   Clear   82 15     8%   79 29.97        
Mar 26 13:10 ENE 6   Clear   82 15     8%   79 29.98        
Mar 26 13:00 ENE 6   Clear   82 15     8%   79 29.98        
Mar 26 12:50 E 3   Clear   82 18     9%   79 29.99        
Mar 26 12:40 E 6   Clear   81 14     8%   79 29.99        
Mar 26 12:30 ESE 5   Clear   80 16     9%   78 29.99        
Mar 26 12:20 E 5   Clear   80 16     9%   79 29.99        
Mar 26 12:10 NE 4   Clear   81 19     10%   79 29.99        
Mar 26 12:00 N 3   Clear   80 21     11%   79 30        
Mar 26 11:50 ENE 2   Clear   80 21     11%   79 30        
Mar 26 11:40 N 2   Clear   80 21     11%   78 30        
Mar 26 11:30 NNE 3   Clear   79 22     12%   77 30        
Mar 26 11:20 NNE 3   Clear   79 22     12%   77 30        
Mar 26 11:10 NNE 3   Clear   78 21     12%   76 30.01        
Mar 26 11:00 NNE 4   Clear   77 20     12%   75 30.01        
Mar 26 10:20 NE 3   Clear   76 25     15%   73 30.01        
Mar 26 10:10 NNE 2   Clear   76 23     14%   74 30.01        
Mar 26 10:00 ENE 2   Clear   76 23     14%   74 30.01        
Mar 26 09:40 ESE 1   Clear   77 23     13%   75 30        
Mar 26 09:30 WSW 1   Clear   74 24     15%   72 30        
Mar 26 09:20 WSW 1   Clear   74 25     16%   72 30        
Mar 26 09:10 S 1   Clear   74 26     17%   72 30        
Mar 26 09:00 S 1   Clear   72 28     20%   69 30        
Mar 26 08:50 SSW 1   Clear   69 28     22%     30        
Mar 26 08:40 E 1   Clear   67 30     25%     29.99        
Mar 26 08:30 ENE 2   Clear   66 30     26%     29.99        
Mar 26 08:20 ENE 1   Clear   65 31     28%     29.99        
Mar 26 08:10 E 3   Clear   63 30     29%     29.99        
Mar 26 08:00 E 4   Clear   65 22     19%     29.99        
Notice The following observation data may not be complete
Mar 26 07:50 S 5   Clear            %     29.98        
Notice The following observation data may not be complete
Mar 26 07:40 SW 7   Clear            %     29.98        
Notice The following observation data may not be complete
Mar 26 07:30 SW 8   Clear            %     29.98        
Mar 26 07:20 SW 8   Clear   68        %     29.98        
Mar 26 07:10 SW 7   Clear   67        %     29.98        
Mar 26 07:00 SW 6   Clear   65        %     29.98        
Mar 26 06:50 ESE 2   Clear   61 24     24%     29.98        
Mar 26 06:40 ENE 2   Clear   60 26     28%     29.98        
Mar 26 06:30 E 2   Clear   60 26     27%     29.98        
Mar 26 06:20 ENE 3   Clear   61 27     27%     29.98        
Mar 26 06:10 E 3   Clear   63 24     22%     29.98        
Notice The following observation data may not be complete
Mar 26 06:00 SW 6   Clear            %     29.97        
Mar 26 05:50 SW 8   Clear   66        %     29.97        
Mar 26 05:40 SW 9   Clear   66        %     29.97        
Mar 26 05:30 SW 9   Clear   66        %     29.97        
Notice The following observation data may not be complete
Mar 26 05:20 SW 8   Clear            %     29.97        
Notice The following observation data may not be complete
Mar 26 05:10 SW 7   Clear            %     29.97        
Notice The following observation data may not be complete
Mar 26 05:00 SW 6   Clear            %     29.98        
Notice The following observation data may not be complete
Mar 26 04:50 S 5   Clear            %     29.97        
Mar 26 04:40 SW 8   Clear   66        %     29.97        
Notice The following observation data may not be complete
Mar 26 04:30 SW 9   Clear            %     29.98        
Mar 26 04:20 SW 8   Clear   67        %     29.97        
Mar 26 04:10 SW 8   Clear   67        %     29.98        
Notice The following observation data may not be complete
Mar 26 04:00 SW 9   Clear            %     29.98        
Notice The following observation data may not be complete
Mar 26 03:50 SW 6   Clear            %     29.98        
Mar 26 03:40 SW 7   Clear   67        %     29.98        
Mar 26 03:30 SW 7   Clear   66        %     29.99        
Mar 26 03:20 SW 3   Clear   61 27     27%     29.99        
Mar 26 03:10 Calm   Clear   60 30     32%     29.99        
Mar 26 03:00 N 1   Clear   61 30     31%     30        
Mar 26 02:50 E 3   Clear   62 30     29%     30        
Mar 26 02:40 E 2   Clear   62 30     30%     30.01        
Mar 26 02:30 E 4   Clear   65 28     25%     30.01        
Mar 26 02:20 WSW 7   Clear   68        %     30.01        
Mar 26 02:10 WSW 9   Clear   68        %     30.02        
Mar 26 02:00 WSW 11   Clear   68        %     30.02        
Notice The following observation data may not be complete
Mar 26 01:50 WSW 10   Clear            %     30.02        
Mar 26 01:40 SW 9   Clear   68        %     30.02        
Mar 26 01:30 SW 8   Clear   68        %     30.02        
Mar 26 01:20 SW 9   Clear   68        %     30.03        
Mar 26 01:10 SW 10   Clear   68        %     30.03        
Mar 26 01:00 SW 9   Clear   68        %     30.03        
Notice The following observation data may not be complete
Mar 26 00:50 SW 7   Clear            %     30.03        
Mar 26 00:40 WSW 8   Clear   68        %     30.03        
Mar 26 00:30 SW 8   Clear   68        %     30.04        
Mar 26 00:20 WSW 9   Clear   68        %     30.04        
Mar 26 00:10 WSW 8   Clear   68        %     30.04        
Mar 26 00:00 SW 8   Clear   68 20     16%     30.04        
Mar 25 23:50 SW 8   Clear   69 19     15%     30.04        
Mar 25 23:40 SW 8   Clear   69 21     16%     30.04        
Mar 25 23:30 SW 7   Clear   69 21     16%     30.05        
Mar 25 23:20 WSW 8   Clear   69 21     16%     30.05        
Mar 25 23:10 WSW 9   Clear   70 22     16%     30.05        
Mar 25 23:00 SW 8   Clear   69 21     16%     30.05        
Mar 25 22:50 SW 7   Clear   69 23     17%     30.05        
Mar 25 22:40 SW 7   Clear   69 24     18%     30.05        
Mar 25 22:30 SW 6   Clear   70 24     18%     30.06        
Mar 25 22:20 WSW 6   Clear   70 23     17%   68 30.06        
Mar 25 22:10 WSW 7   Clear   71 24     17%   68 30.06        
Mar 25 22:00 WSW 8   Clear   71 24     17%   68 30.06        
Mar 25 21:50 SW 8   Clear   71 26     18%   69 30.06        
Mar 25 21:40 SW 10   Clear   72 25     17%   69 30.05        
Mar 25 21:30 SSW 11   Clear   72 25     17%   70 30.05        
Mar 25 21:20 SSW 11   Clear   72 25     17%   70 30.05        
Mar 25 21:10 SSW 9   Clear   72 26     18%   70 30.05        
Mar 25 21:00 SW 9   Clear   72 27     18%   70 30.04        
Mar 25 20:50 SSW 10   Clear   73 28     19%   71 30.04        
Mar 25 20:40 SSW 11   Clear   73 28     19%   71 30.04        
Mar 25 20:30 SSW 8   Clear   73 28     19%   71 30.03        
Mar 25 20:20 SW 9   Clear   73 29     20%   71 30.03        
Mar 25 20:10 SW 10   Clear   73 30     20%   71 30.03        
Mar 25 20:00 SSW 7   Clear   74 29     19%   71 30.03        
Mar 25 19:50 SSW 6   Clear   73 27     18%   71 30.03        
Mar 25 19:40 SSW 5   Clear   72 28     19%   70 30.03        
Mar 25 19:30 SSW 3   Clear   72 28     20%   70 30.03        
Mar 25 19:20 SSW 3   Clear   72 29     20%   70 30.03        
Mar 25 19:10 SSW 2   Clear   74 29     19%   72 30.03        
Mar 25 19:00 SSE 1   Clear   75 24     15%   73 30.03        
Mar 25 18:50 SE 3   Clear   76 25     15%   74 30.03        
Mar 25 18:40 ESE 3   Clear   76 24     14%   74 30.03        
Mar 25 18:30 ESE 3   Clear   77 24     14%   75 30.03        
Mar 25 18:20 ESE 4   Clear   77 24     14%   75 30.02        
Mar 25 18:10 E 4   Clear   78 25     14%   76 30.03        
Mar 25 18:00 E 4   Clear   79 24     13%   78 30.03        
Mar 25 17:50 ESE 3   Clear   80 25     13%   78 30.03        
Mar 25 17:40 ESE 3   Clear   80 25     13%   78 30.03        
Mar 25 17:30 ESE 3   Clear   81 25     13%   79 30.03        
Mar 25 17:20 ESE 3   Clear   81 25     13%   79 30.03        
Mar 25 17:10 ESE 4   Clear   80 25     13%   78 30.03        
Mar 25 17:00 ESE 5   Clear   80 25     13%   78 30.03        
Mar 25 16:50 ESE 4   Clear   80 25     13%   79 30.04        
Mar 25 16:40 ESE 3   Clear   80 25     13%   79 30.04        
Mar 25 16:30 ESE 3   Clear   80 25     13%   78 30.04        
Mar 25 16:20 ESE 4   Clear   81 25     13%   79 30.04        
Mar 25 16:10 SE 4   Clear   81 25     13%   79 30.05        
Mar 25 16:00 SSE 3   Clear   81 25     13%   79 30.05        
Mar 25 15:50 ESE 5   Clear   80 27     14%   78 30.06        
Mar 25 15:40 E 6   Clear   81 25     13%   79 30.06        
Mar 25 15:30 E 3   Clear   81 26     13%   80 30.06        
Mar 25 15:20 ESE 4   Clear   80 27     14%   79 30.06        
Mar 25 15:10 E 6   Clear   80 26     14%   78 30.07        
Mar 25 15:00 ESE 3   Clear   80 26     14%   78 30.07        
Mar 25 14:50 E 4   Clear   80 27     14%   78 30.07        
Mar 25 14:40 E 4   Clear   80 27     14%   78 30.08        
Mar 25 14:30 NNE 4   Clear   80 26     14%   78 30.08        
Mar 25 14:20 ENE 6   Clear   79 26     14%   78 30.08        
Mar 25 14:10 E 5   Clear   80 26     14%   78 30.09        
Mar 25 14:00 NW 2   Clear   80 26     14%   78 30.09        
Mar 25 13:50 ENE 5   Clear   79 25     14%   77 30.1        
Mar 25 13:40 ENE 4   Clear   79 26     14%   77 30.1        
Mar 25 13:30 SE 3   Clear   79 26     14%   77 30.11        
Mar 25 13:20 E 4   Clear   78 25     14%   76 30.11        
Mar 25 13:10 E 3   Clear   78 26     15%   76 30.12        
Mar 25 13:00 E 4   Clear   79 25     14%   77 30.12        
Mar 25 12:50 ENE 5   Clear   77 24     14%   75 30.13        
Mar 25 12:40 ENE 4   Clear   77 24     14%   75 30.13        
Mar 25 12:30 ENE 5   Clear   77 24     14%   75 30.13        
Mar 25 12:20 ENE 4   Clear   78 25     14%   76 30.14        
Mar 25 12:10 E 3   Clear   77 24     14%   75 30.14        
Mar 25 12:00 NE 4   Clear   77 24     14%   75 30.15        
Mar 25 11:50 NE 2   Clear   76 25     15%   74 30.15        
Mar 25 11:40 E 5   Clear   76 25     15%   74 30.16        
Mar 25 11:30 ENE 5   Clear   76 25     15%   74 30.16        
Mar 25 11:20 NNE 5   Clear   75 26     16%   73 30.16        
Mar 25 11:10 N 6   Clear   75 26     16%   73 30.16        
Mar 25 11:00 N 6   Clear   74 28     18%   72 30.17        
Mar 25 10:50 N 6   Clear   74 29     19%   72 30.17        
Mar 25 10:40 NNE 5   Clear   74 29     19%   72 30.17        
Mar 25 10:30 NNE 5   Clear   74 29     19%   72 30.17        
Mar 25 10:20 NNE 5   Clear   74 29     19%   72 30.17        
Mar 25 10:10 NNE 3   Clear   74 28     18%   72 30.17        
Mar 25 10:00 NNW 2   Clear   74 28     18%   72 30.17        
Mar 25 09:40 NE 1   Clear   74 28     18%   72 30.17        
Mar 25 09:30 ENE 2   Clear   73 28     19%   71 30.17        
Mar 25 09:20 E 3   Clear   72 28     19%   70 30.17        
Mar 25 09:10 ESE 1   Clear   75 27     17%   73 30.17        
Notice The following observation data may not be complete
Mar 25 09:00 S 1   Clear     26      %     30.17        
Notice The following observation data may not be complete
Mar 25 08:50 SE 1   Clear     28      %     30.17        
Mar 25 08:40 E 3   Clear   69 29     22%     30.16        
Notice The following observation data may not be complete
Mar 25 08:30 SE 2   Clear     27      %     30.16        
Mar 25 08:20 SW 5   Clear   69 25     19%     30.16        
Mar 25 08:10 SW 6   Clear   68 24     19%     30.16        
Mar 25 08:00 SW 6   Clear   67 23     19%     30.16        
Notice The following observation data may not be complete
Mar 25 07:50 SW 6   Clear     23      %     30.15        
Notice The following observation data may not be complete
Mar 25 07:40 SW 8   Clear     23      %     30.15        
Notice The following observation data may not be complete
Mar 25 07:30 SW 10   Clear     22      %     30.15        
Mar 25 07:20 SW 9   Clear   63 22     21%     30.15        
Mar 25 07:10 SW 10   Clear   63 22     21%     30.15        
Notice The following observation data may not be complete
Mar 25 07:00 SW 10   Clear     22      %     30.14        
Notice The following observation data may not be complete
Mar 25 06:50 SW 8   Clear     23      %     30.14        
Notice The following observation data may not be complete
Mar 25 06:40 SW 9   Clear     23      %     30.14        
Notice The following observation data may not be complete
Mar 25 06:30 SW 9   Clear     23      %     30.14        
Mar 25 06:20 SW 9   Clear   63 24     23%     30.14        
Mar 25 06:10 SW 9   Clear   63 25     23%     30.14        
Mar 25 06:00 SW 7   Clear   63 24     23%     30.13        
Mar 25 05:50 SSW 5   Clear   63 25     24%     30.13        
Mar 25 05:40 SW 6   Clear   63 25     24%     30.14        
Mar 25 05:30 SW 6   Clear   63 25     24%     30.13        
Mar 25 05:20 WSW 7   Clear   63 26     24%     30.14        
Mar 25 05:10 WSW 9   Clear   63 26     24%     30.13        
Mar 25 05:00 W 9   Clear   63 26     24%     30.13        
Notice The following observation data may not be complete
Mar 25 04:50 WSW 7   Clear     26      %     30.13        
Notice The following observation data may not be complete
Mar 25 04:40 SW 3   Clear     26      %     30.13        
Notice The following observation data may not be complete
Mar 25 04:30 SW 6   Clear     26      %     30.13        
Notice The following observation data may not be complete
Mar 25 04:20 SW 6   Clear     26      %     30.13        
Notice The following observation data may not be complete
Mar 25 04:10 SW 6   Clear     26      %     30.14        
Notice The following observation data may not be complete
Mar 25 04:00 SW 7   Clear     26      %     30.14        
Notice The following observation data may not be complete
Mar 25 03:50 SW 8   Clear     27      %     30.14        
Mar 25 03:40 SW 7   Clear   64 27     25%     30.14        
Mar 25 03:30 SW 7   Clear   64 28     25%     30.14        
Mar 25 03:20 SW 8   Clear   64 28     25%     30.14        
Mar 25 03:10 SW 8   Clear   65 27     24%     30.14        
Mar 25 03:00 SW 9   Clear   65 27     24%     30.14        
Notice The following observation data may not be complete
Mar 25 02:50 SW 10   Clear     27      %     30.14        
Mar 25 02:40 SW 9   Clear   65 27     24%     30.15        
Mar 25 02:30 SW 8   Clear   65 27     24%     30.15        
Mar 25 02:20 SW 7   Clear   64 28     25%     30.16        
Mar 25 02:10 SW 7   Clear   64 28     25%     30.16        
Mar 25 02:00 SW 7   Clear   64 28     25%     30.16        
Notice The following observation data may not be complete
Mar 25 01:50 SW 7   Clear     28      %     30.16        
Notice The following observation data may not be complete
Mar 25 01:40 WSW 8   Clear     27      %     30.16        
Notice The following observation data may not be complete
Mar 25 01:30 SW 8   Clear     28      %     30.16        
Mar 25 01:20 SW 7   Clear   65 28     25%     30.17        
Mar 25 01:10 SW 7   Clear   64 29     26%     30.17        
Mar 25 01:00 SW 4   Clear   64 29     26%     30.17        
Mar 25 00:50 SW 5   Clear   65 28     25%     30.17        
Mar 25 00:40 SW 6   Clear   65 28     25%     30.16        
Mar 25 00:30 WSW 6   Clear   65 28     25%     30.17        
Mar 25 00:20 WSW 7   Clear   65 28     24%     30.17        
Mar 25 00:10 WSW 8   Clear   66 28     24%     30.17        
Mar 25 00:00 WSW 9   Clear   66 27     23%     30.17        
Mar 24 23:50 WSW 9   Clear   66 27     23%     30.17        
Mar 24 23:40 WSW 10   Clear   66 27     23%     30.17        
Mar 24 23:30 WSW 10   Clear   66 26     22%     30.17        
Mar 24 23:20 WSW 8   Clear   66 26     22%     30.17        
Mar 24 23:10 SW 8   Clear   67 26     22%     30.17        
Mar 24 23:00 WSW 9   Clear   67 27     22%     30.17        
Mar 24 22:50 WSW 9   Clear   67 27     22%     30.18        
Mar 24 22:40 WSW 9   Clear   67 27     22%     30.18        
Mar 24 22:30 WSW 10   Clear   67 26     21%     30.18        
Mar 24 22:20 WSW 10   Clear   68 26     21%     30.18        
Mar 24 22:10 W 9   Clear   68 26     21%     30.18        
Mar 24 22:00 WSW 8   Clear   67 27     22%     30.18        
Mar 24 21:50 WSW 9   Clear   68 28     22%     30.17        
Mar 24 21:40 WSW 9   Clear   68 27     21%     30.17        
Mar 24 21:30 WSW 8   Clear   68 27     21%     30.17        
Mar 24 21:20 SW 8   Clear   69 27     21%     30.17        
Mar 24 21:10 SW 6   Clear   69 27     21%     30.16        
Mar 24 21:00 SSW 6   Clear   69 28     21%     30.16        
Mar 24 20:50 SSW 8   Clear   69 28     21%     30.16        
Mar 24 20:40 SSW 8   Clear   70 28     21%     30.15        
Mar 24 20:30 S 9   Clear   70 27     20%     30.15        
Mar 24 20:20 SSW 8   Clear   70 27     20%     30.14        
Mar 24 20:10 SSW 6   Clear   70 27     20%   68 30.14        
Mar 24 20:00 SSW 6   Clear   71 28     20%   68 30.13        
Mar 24 19:50 SW 6   Clear   71 28     20%   68 30.13        
Mar 24 19:40 SSW 4   Clear   70 29     21%   68 30.13        
Mar 24 19:30 SSW 4   Clear   71 28     20%   69 30.12        
Mar 24 19:20 SSW 5   Clear   72 28     20%   70 30.12        
Mar 24 19:10 SSW 5   Clear   72 28     19%   70 30.11        
Mar 24 19:00 S 4   Clear   73 27     18%   71 30.11        
Mar 24 18:40 SE 3   Clear   74 26     17%   72 30.11        
Mar 24 18:30 SE 3   Clear   74 25     16%   72 30.11        
Mar 24 18:20 SE 3   Clear   74 25     16%   72 30.11        
Mar 24 18:10 SSE 2   Clear   75 26     16%   73 30.11        
Mar 24 18:00 SE 4   Clear   77 26     15%   75 30.1        
Mar 24 17:50 SE 3   Clear   78 25     14%   76 30.1        
Mar 24 17:40 ESE 2   Clear   79 26     14%   77 30.1        
Mar 24 17:30 NE 2   Clear   79 26     14%   78 30.1        
Mar 24 17:20 NNE 2   Clear   79 26     14%   77 30.1        
Mar 24 17:10 NNE 2   Clear   78 25     14%   76 30.1        
Mar 24 17:00 ESE 3   Clear   78 25     14%   77 30.1        
Mar 24 16:50 NNE 2   Clear   77 24     14%   75 30.11        
Mar 24 16:40 E 4   Clear   78 25     14%   76 30.11        
Mar 24 16:30 E 4   Clear   77 24     14%   75 30.11        
Mar 24 16:20 ENE 5   Clear   78 23     13%   76 30.11        
Mar 24 16:10 ESE 2   Clear   79 24     13%   77 30.11        
Mar 24 16:00 N 3   Clear   78 23     13%   76 30.12        
Mar 24 15:50 NNW 4   Clear   78 23     13%   76 30.12        
Mar 24 15:40 W 4   Clear   79 22     12%   77 30.12        
Mar 24 15:30 SW 4   Clear   79 22     12%   77 30.12        
Mar 24 15:20 WSW 4   Clear   78 22     12%   77 30.12        
Mar 24 15:10 NNW 3   Clear   77 23     13%   75 30.13        
Mar 24 15:00 NNE 3   Clear   77 21     12%   75 30.13        
Mar 24 14:50 NNE 4   Clear   78 21     12%   76 30.13        
Mar 24 14:40 N 3   Clear   77 21     12%   75 30.13        
Mar 24 14:30 NE 4   Clear   76 20     12%   74 30.14        
Mar 24 14:20 NE 6   Clear   77 22     13%   75 30.14        
Mar 24 14:10 SSW 3   Clear   78 21     12%   76 30.14        
Mar 24 14:00 WNW 2   Clear   77 20     12%   75 30.15        
Mar 24 13:50 NE 3   Clear   76        %     30.15        
Mar 24 13:40 E 4   Clear   77 24     14%   75 30.16        
Mar 24 13:30 N 3   Clear   76 25     15%   73 30.16        
Mar 24 13:20 ENE 3   Clear   75 26     16%   73 30.16        
Mar 24 13:10 NE 5   Clear   74 25     16%   72 30.17        
Mar 24 13:00 NE 4   Clear   74 27     17%   72 30.17        
Mar 24 12:50 N 3   Clear   74 27     17%   72 30.17        
Mar 24 12:40 NE 5   Clear   74 27     18%   71 30.17        
Mar 24 12:30 NE 4   Clear   74 28     18%   72 30.18        
Mar 24 12:20 NNE 4   Clear   73 30     20%   71 30.18        
Mar 24 12:10 NE 4   Clear   73 31     21%   71 30.18        
Mar 24 12:00 ENE 4   Clear   72 31     22%   70 30.18        
Mar 24 11:50 E 3   Clear   73 32     22%   71 30.18        
Mar 24 11:40 SE 2   Clear   72 32     23%   70 30.18        
Mar 24 11:30 NE 3   Clear   71 32     24%   69 30.19        
Mar 24 11:20 NNE 3   Clear   70 32     25%     30.19        
Mar 24 11:10 NE 3   Clear   69 33     26%     30.19        
Mar 24 11:00 ENE 3   Clear   69 33     26%     30.18        
Mar 24 10:50 NE 2   Clear   69 33     26%     30.19        
Mar 24 10:40 NE 3   Clear   67 34     29%     30.19        
Mar 24 10:30 NE 4   Clear   66 35     32%     30.19        
Mar 24 10:20 NE 4   Clear   66 36     33%     30.19        
Mar 24 10:10 NNE 3   Clear   65 37     35%     30.19        
Mar 24 10:00 NNE 5   Clear   64 38     38%     30.19        
Mar 24 09:50 NNE 7   Clear   65 37     36%     30.19        
Mar 24 09:40 NE 2   Clear   67 33     28%     30.18        
Mar 24 09:30 NNE 1   Clear   67 33     28%     30.18        
Mar 24 09:20 SSW 2   Clear   67 32     28%     30.18        
Mar 24 09:10 SW 3   Clear   66 33     29%     30.17        
Mar 24 09:00 SSW 2   Clear   67 32     27%     30.17        
Mar 24 08:50 ENE 1   Clear   65 31     28%     30.17        
Mar 24 08:40 E 1   Clear   64 31     28%     30.17        
Mar 24 08:30 E 1   Clear   63 30     29%     30.16        
Mar 24 08:20 E 2   Clear   62 31     31%     30.16        
Mar 24 08:10 Calm   Clear   64 32     30%     30.16        
Mar 24 08:00 SW 1   Clear   60 32     35%     30.15        
Mar 24 07:50 Calm   Clear   57 34     43%     30.15        
Mar 24 07:40 E 1   Clear   53 33     47%     30.14        
Mar 24 07:30 SW 1   Clear   51 32     48%     30.14        
Mar 24 07:20 SE 1   Clear   51 33     50%     30.14        
Mar 24 07:10 E 1   Clear   51 32     48%     30.13        
Mar 24 07:00 SW 3   Clear   52 32     46%     30.13        
Mar 24 06:50 SW 2   Clear   50 34     53%     30.12        
Mar 24 06:40 NE 2   Clear   52 35     52%     30.12        
Mar 24 06:30 WNW 2   Clear   53 34     50%     30.11        
Mar 24 06:20 E 2   Clear   53 35     51%     30.1        
Mar 24 06:10 ENE 3   Clear   53 34     49%     30.1        
Mar 24 06:00 Calm   Clear   52 35     52%     30.1        
Mar 24 05:50 E 3   Clear   54 34     48%     30.09        
Mar 24 05:40 SSW 4   Clear   53 33     47%     30.09        
Mar 24 05:30 SW 3   Clear   51 37     58%     30.08        
Mar 24 05:20 Calm   Clear   51 37     58%     30.08        
Mar 24 05:10 SW 2   Clear   53 37     54%     30.08        
Mar 24 05:00 S 3   Clear   51 38     60%     30.08        
Mar 24 04:50 S 2   Clear   52 37     57%     30.07        
Mar 24 04:40 NE 2   Clear   51 36     56%     30.07        
Mar 24 04:30 SW 2   Clear   52 36     56%     30.06        
Mar 24 04:20 NNE 1   Clear   52 37     56%     30.06        
Mar 24 04:10 ENE 2   Clear   54 37     53%     30.06        
Mar 24 04:00 ENE 3   Clear   53 37     55%     30.06        
Mar 24 03:50 E 1   Clear   53 38     56%     30.06        
Mar 24 03:40 W 1   Clear   53 38     56%     30.06        
Mar 24 03:30 ENE 1   Clear   55 37     52%     30.06        
Mar 24 03:20 NNE 2   Clear   55 37     50%     30.06        
Mar 24 03:10 S 1   Clear   55 37     50%     30.06        
Mar 24 03:00 NNW 2   Clear   54 36     51%     30.06        
Mar 24 02:50 WSW 2   Clear   55 36     49%     30.06        
Mar 24 02:40 SW 3   Clear   55 36     49%     30.06        
Mar 24 02:30 SW 4   Clear   54 37     52%     30.06        
Mar 24 02:20 SW 2   Clear   54 38     54%     30.06        
Mar 24 02:10 SW 1   Clear   54 38     54%     30.06        
Mar 24 02:00 WSW 1   Clear   53 38     56%     30.06        
Mar 24 01:50 SW 2   Clear   54 38     54%     30.05        
Mar 24 01:40 SW 1   Clear   55 39     55%     30.05        
Mar 24 01:30 E 2   Clear   55 39     54%     30.05        
Mar 24 01:20 SW 2   Clear   56 38     51%     30.05        
Mar 24 01:10 WSW 2   Clear   56 39     53%     30.05        
Mar 24 01:00 SSW 1   Clear   56 40     54%     30.05        
Mar 24 00:50 W 1   Clear   57 40     53%     30.05        
Mar 24 00:40 SSW 2   Clear   57 40     54%     30.05        
Mar 24 00:30 NNE 1   Clear   58 41     53%     30.05        
Mar 24 00:20 NE 1   Clear   59 40     49%     30.05        
Mar 24 00:10 E 6   Clear   59 40     49%     30.05        
Mar 24 00:00 NW 5   Clear   60 38     44%     30.05        
Mar 23 23:50 WSW 2   Clear   58 40     50%     30.05        
Mar 23 23:40 W 3   Clear   59 41     51%     30.05        
Mar 23 23:30 NNE 4   Clear   60 40     48%     30.05        
Mar 23 23:20 NNW 6   Clear   61 38     42%     30.05        
Mar 23 23:10 N 4   Clear   60 40     47%     30.06        
Mar 23 23:00 NW 6   Clear   62 38     42%     30.05        
Mar 23 22:50 SW 14   Clear   63 33     32%     30.05        
Mar 23 22:40 WSW 13   Clear   63 34     34%     30.05        
Mar 23 22:30 SSW 12   Clear   62 36     37%     30.05        
Mar 23 22:20 SW 14   Clear   63 36     37%     30.05        
Mar 23 22:10 WSW 10   Clear   63 35     36%     30.06        
Mar 23 22:00 SW 12   Clear   63 36     36%     30.05        
Mar 23 21:50 SSW 7   Clear   63 34     34%     30.05        
Mar 23 21:40 W 9   Clear   64 35     34%     30.05        
Mar 23 21:30 SW 11   Clear   63 36     36%     30.05        
Mar 23 21:20 SW 8   Clear   64 36     35%     30.05        
Mar 23 21:10 SW 12   Clear   64 36     36%     30.05        
Mar 23 21:00 SW 10   Clear   64 38     38%     30.04        
Mar 23 20:50 SSW 13   Clear   64 39     39%     30.04        
Mar 23 20:40     Clear   64 38     38%     30.03        
Mar 23 20:30     Clear   65 37     36%     30.03        
Mar 23 20:20     Clear   65 36     34%     30.03        
Mar 23 20:10 SSW 13   Clear   65 36     34%     30.03        
Mar 23 20:00 SSW 13   Clear   65 36     34%     30.03        
Mar 23 19:50 SW 13   Clear   65 36     34%     30.03        
Mar 23 19:40 SW 16   Clear   66 37     35%     30.02        
Mar 23 19:30 SSW 12   Clear   66 37     35%     30.02        
Mar 23 19:20 SW 14   Clear   66 36     33%     30.02        
Mar 23 19:10 SSW 13   Clear   66 36     33%     30.02        
Mar 23 19:00     Clear   67 37     33%     30.02        
Mar 23 18:50     Clear   67 37     33%     30.01        
Mar 23 18:40     Clear   67 37     33%     30.01        
Mar 23 18:30     Clear   67 37     33%     30.02        
Mar 23 18:20 SW 17   Clear   68 37     32%     30.02        
Mar 23 18:10     Clear   69 37     32%     30.02        
Mar 23 18:00     Clear   69 37     31%     30.02        
Mar 23 17:50     Clear   70 38     31%     30.02        
Mar 23 17:40     Clear   71 38     30%   69 30.02        
Mar 23 17:30 SSW 11   Clear   72 38     29%   70 30.02        
Mar 23 17:20 SSW 15   Clear   73 39     29%   71 30.02        
Mar 23 17:10 SSW 13   Clear   74 38     28%   72 30.02        
Mar 23 17:00 SW 15   Clear   74 38     28%   72 30.02        
Mar 23 16:50 SW 13   Clear   74 38     27%   72 30.02        
Mar 23 16:40     Clear   74 38     27%   72 30.02        
Mar 23 16:30     Clear   74 37     26%   72 30.02        
Mar 23 16:20 SSW 11   Clear   74 37     26%   72 30.02        
Mar 23 16:10     Clear   75 36     24%   73 30.02        
Mar 23 16:00 SSE 9   Clear   75 35     24%   73 30.02        
Mar 23 15:40 NNE 5   Clear   75 35     24%   73 30.03        
Mar 23 15:30 N 7   Clear   75 35     24%   73 30.03        
Mar 23 15:20 NE 6   Clear   76 34     22%   74 30.02        
Mar 23 15:10 N 8   Clear   75 37     25%   73 30.03        
Mar 23 15:00 NE 6   Clear   77 34     21%   75 30.03        
Mar 23 14:50 NE 8   Clear   76 36     23%   75 30.03        
Mar 23 14:40 NNE 5   Clear   76 35     23%   74 30.03        
Mar 23 14:30 N 7   Clear   75 35     23%   73 30.04        
Mar 23 14:20 NNE 6   Clear   74 35     24%   72 30.04        
Mar 23 14:10 NNE 7   Clear   74 35     24%   72 30.04        
Mar 23 14:00 NNE 5   Clear   74 35     24%   72 30.05        
Mar 23 13:50 NNE 6   Clear   74 36     25%   72 30.05        
Mar 23 13:40 NNE 6   Clear   73 35     25%   72 30.05        
Mar 23 13:30 NNE 8   Clear   74 36     25%   72 30.06        
Mar 23 13:20 NNE 6   Clear   74 37     26%   72 30.06        
Mar 23 13:10 NNE 5   Clear   74 37     26%   72 30.07        
Mar 23 13:00 NNE 5   Clear   74 38     27%   72 30.07        
May 15 09:50 N 5   Clear   76 44     31%   75 29.9        
May 15 09:20 N 3   Clear   75 43     32%   74 29.9        
May 15 05:00 Calm   Clear   63 46     55%     29.82        
May 14 23:50 NE 3   Clear   70 45     40%     29.82        
May 14 18:50 N 5   Clear   81 42     25%   80 29.77        
May 14 18:00 NNW 8   Clear   85 38     19%   82 29.77        
May 14 16:20 N 4   Clear   86        %     29.79        
May 14 15:50 NNW 6   Clear   85 27     12%   82 29.79        
May 14 14:30 NE 5   Clear   85 28     13%   81 29.82        
May 14 10:40 N 6   Clear   77 41     27%   76 29.87        
May 14 09:30 N 4   Clear   75 39     27%   73 29.86        
May 14 09:10 N 4   Clear   73 40     30%   72 29.86        
May 14 09:00 N 4   Clear   72 41     33%   71 29.86        
May 14 06:30 NE 3   Clear   59 43     56%     29.82        
May 14 03:30 NNE 3   Clear   62 46     56%     29.81        
May 14 00:40 Calm   Clear   65 44     47%     29.82        
May 13 18:30 NNW 7   Clear   78 40     26%   77 29.8        
May 13 16:50 NNW 6   Clear   81 39     23%   79 29.81        
May 13 16:00 NNW 6   Clear   79 40     25%   77 29.82        
May 13 12:40 NE 7   Clear   77 40     27%   75          
May 13 07:40 NNW 3   Clear   65 43     44%     29.86        
Notice The following observation data may not be complete
May 13 07:20     Clear            %              
May 13 07:10 NNE 3   Clear   66 43     43%     29.85        
May 13 03:00 Calm   Clear   61 42     50%     29.8        
May 13 02:10 NNE 3   Clear   63 40     44%     29.79        
May 12 16:00 NNW 7   Clear   79 40     25%   78 29.76        
May 12 12:10 NNW 7   Clear   75 41     29%   74 29.81        
May 12 11:40 N 5   Clear   74 42     31%   73 29.82        
May 12 00:40     Clear   66 34     31%     29.65        
May 11 23:10 W 7   Clear   65 41     40%     29.65        
May 11 22:30 WSW 12   Clear   67 36     32%     29.66        
May 11 22:00     Clear   66 38     36%              
May 11 18:00     Clear   81 37     21%   79 29.59        
Notice The following observation data may not be complete
May 11 11:20     Clear            %